User: anonymous   Login
Location: Nebula Knoll Observatory
(43.6666°N, 71.0000°W)
Time: 00:36:19
(UTC-04:00)
Language:

Cosmos 1782 - Orbit

View from above orbital plane
View from above orbital plane
View from above satellite
View from above satellite

Ground track
Ground track

The orbit data is extracted from the following two-line orbital elements,

1 16986U 86074A   15108.53666776  .00003073  00000-0  21556-3 0  9991
2 16986 082.5091 169.5936 0012769 154.3862 205.8000 15.04796148551865
Epoch (UTC): 18 April 2015 12:52:48
Eccentricity: 0.0012769
inclination: 82.5091°
perigee height: 543 km
apogee height: 561 km
right ascension of ascending node: 169.5936°
argument of perigee: 154.3862°
revolutions per day: 15.04796148
mean anomaly at epoch: 205.8000°
orbit number at epoch: 55186

The dashed part of the orbit path shows where the satellite is in the earth's shadow,  

DLR